Home > Weather > Siegen > Past weeks

Flag for Germany Past Weather in Siegen, North Rhine-Westphalia, Germany — Yesterday and Last 2 Weeks

Now
61 °F

Partly sunny.


Feels Like: 61 °F
Forecast: 55 / 71 °F
Wind: 12 mph from Southwest

Location: Hessen

Current Time: Jun 30, 2016 at 12:39:07 PM

Latest Report: Jun 30, 2016 at 11:50 AM


Visibility: N/A

Pressure: 29.98 "Hg

Humidity: 77%

Dew Point: 54 °F

Location of SiegenLocation

Past Weather in Siegen — Graph

°F

Siegen Temperature Yesterday

Maximum temperature yesterday: 66 °F (at 2:50 PM)
Minimum temperature yesterday: 55 °F (at 8:50 AM)
Average temperature yesterday: 62 °F

High & Low Weather Summary for the Past Weeks

 TemperatureHumidityPressure
High84 °F (Jun 23, 3:20 PM)100% (Jun 15, 12:20 PM)30.27 "Hg (Jun 15, 12:20 PM)
Low48 °F (Jun 19, 7:20 AM)43% (Jun 29, 3:20 PM)29.53 "Hg (Jun 15, 12:50 PM)
Average60 °F82%30.01 "Hg
* Reported Jun 15 11:20 AM — Jun 30 11:20 AM, Siegen, Weather by CustomWeather, © 2016

Note: Actual official high and low records may vary slightly from our data, if they occured in-between our weather recording intervals... More about our weather records

Advertising

Siegen Weather History for the Previous 24 Hours

Scroll right to see more
 ConditionsComfort  
Time TempWeatherWind HumidityBarometerVisibility
11:20 AM
Thu, Jun 30
59 °FBroken clouds.10 mph82%29.95 "HgN/A
10:50 AM59 °FBroken clouds.13 mph88%29.95 "HgN/A
10:20 AM59 °FBroken clouds.10 mph88%29.95 "HgN/A
9:50 AM57 °FPartly sunny.9 mph100%29.95 "HgN/A
9:20 AM57 °FBroken clouds.9 mph100%29.95 "HgN/A
8:50 AM55 °FPartly sunny.8 mph100%29.95 "HgN/A
8:20 AM55 °FPartly sunny.6 mph100%29.95 "HgN/A
7:50 AM55 °FLight rain. Partly sunny.3 mph100%29.95 "HgN/A
7:20 AM55 °FLight rain. Broken clouds.5 mph100%29.95 "Hg5 mi
10:20 PM
Wed, Jun 29
61 °FSunny.5 mph55%29.95 "Hg10 mi
9:50 PM61 °FPassing clouds.5 mph55%29.95 "HgN/A
9:20 PM61 °FSunny.5 mph55%29.95 "Hg10 mi
8:50 PM63 °FSunny.9 mph49%29.95 "Hg10 mi
8:20 PM63 °FPassing clouds.7 mph52%29.95 "HgN/A
7:50 PM63 °FPassing clouds.8 mph52%29.95 "HgN/A
7:20 PM64 °FPassing clouds.10 mph46%29.95 "HgN/A
6:50 PM64 °FPassing clouds.8 mph52%29.95 "HgN/A
6:20 PM64 °FPassing clouds.9 mph49%29.95 "HgN/A
5:50 PM66 °FPassing clouds.10 mph46%29.95 "HgN/A
5:20 PM66 °FPassing clouds.10 mph49%29.95 "HgN/A
4:20 PM64 °FPassing clouds.12 mph49%29.95 "HgN/A
3:50 PM64 °FScattered clouds.12 mph49%29.95 "HgN/A
3:20 PM66 °FScattered clouds.14 mph43%29.95 "HgN/A
2:50 PM66 °FScattered clouds.14 mph46%29.95 "HgN/A
2:20 PM64 °FScattered clouds.12 mph52%29.95 "HgN/A
1:50 PM64 °FScattered clouds.15 mph56%29.95 "HgN/A
1:20 PM64 °FScattered clouds.15 mph52%29.95 "HgN/A
12:50 PM64 °FScattered clouds.15 mph49%29.95 "HgN/A
12:20 PM64 °FScattered clouds.13 mph60%29.95 "HgN/A
Weather by CustomWeather, © 2016

See weather overviewHow to use our weather pages